TimeEST,TemperatureF,Dew PointF,Humidity,Sea Level PressureIn,VisibilityMPH,Wind Direction,Wind SpeedMPH,Gust SpeedMPH,PrecipitationIn,Events,Conditions,WindDirDegrees,DateUTC
12:53 AM,37.0,30.9,79,30.55,5.0,SE,4.6,-,N/A,,Haze,140,2012-11-18 05:53:00
1:53 AM,36.0,30.0,79,30.54,4.0,ESE,3.5,-,N/A,,Haze,120,2012-11-18 06:53:00
2:53 AM,36.0,33.1,89,30.54,3.0,SE,5.8,-,N/A,,Scattered Clouds,130,2012-11-18 07:53:00
3:14 AM,35.6,33.8,93,30.52,2.5,ESE,3.5,-,N/A,,Partly Cloudy,110,2012-11-18 08:14:00
3:53 AM,35.1,33.1,92,30.53,1.8,SE,8.1,-,N/A,,Partly Cloudy,140,2012-11-18 08:53:00
3:55 AM,35.6,33.8,93,30.51,1.2,SE,9.2,-,N/A,,Partly Cloudy,140,2012-11-18 08:55:00
3:59 AM,35.6,33.8,93,30.51,0.8,SE,6.9,-,N/A,,Mist,140,2012-11-18 08:59:00
4:08 AM,35.6,33.8,93,30.51,0.2,SE,8.1,-,N/A,Fog,Fog,130,2012-11-18 09:08:00
4:31 AM,35.6,33.8,93,30.51,0.2,SE,5.8,-,N/A,Fog,Fog,140,2012-11-18 09:31:00
4:46 AM,35.6,33.8,93,30.51,0.2,SE,6.9,-,N/A,Fog,Fog,140,2012-11-18 09:46:00
4:53 AM,36.0,35.1,97,30.53,0.2,SE,8.1,-,N/A,Fog,Fog,140,2012-11-18 09:53:00
5:23 AM,35.6,35.6,100,30.51,0.2,SE,10.4,-,N/A,Fog,Fog,140,2012-11-18 10:23:00
5:53 AM,36.0,35.1,97,30.54,0.2,SE,6.9,-,N/A,,Mist,140,2012-11-18 10:53:00
6:06 AM,35.6,35.6,100,30.52,0.8,SSE,10.4,-,N/A,,Overcast,150,2012-11-18 11:06:00
6:53 AM,36.0,35.1,97,30.54,1.0,SE,9.2,-,N/A,,Overcast,140,2012-11-18 11:53:00
7:53 AM,36.0,35.1,97,30.54,1.0,SE,3.5,-,N/A,,Mist,140,2012-11-18 12:53:00
8:30 AM,37.4,35.6,93,30.52,0.8,ESE,5.8,-,N/A,,Mist,120,2012-11-18 13:30:00
8:53 AM,37.4,37.4,100,30.52,0.8,SSE,6.9,-,N/A,,Mist,150,2012-11-18 13:53:00
9:41 AM,39.2,37.4,93,30.51,1.5,SSE,5.8,-,N/A,,Mostly Cloudy,150,2012-11-18 14:41:00
9:53 AM,39.9,37.0,89,30.54,1.5,SSE,8.1,-,N/A,,Mostly Cloudy,150,2012-11-18 14:53:00
10:36 AM,41.0,37.4,87,30.51,2.0,SE,3.5,-,N/A,,Mostly Cloudy,140,2012-11-18 15:36:00
10:53 AM,43.0,37.0,80,30.54,3.0,SSE,3.5,-,N/A,,Haze,150,2012-11-18 15:53:00
11:53 AM,48.9,36.0,61,30.51,7.0,SE,6.9,-,N/A,,Mostly Cloudy,130,2012-11-18 16:53:00
12:53 PM,52.0,34.0,50,30.48,10.0,SE,6.9,-,N/A,,Scattered Clouds,140,2012-11-18 17:53:00
1:53 PM,54.0,32.0,43,30.45,10.0,ESE,8.1,-,N/A,,Partly Cloudy,110,2012-11-18 18:53:00
2:53 PM,55.0,28.0,35,30.44,10.0,South,9.2,-,N/A,,Partly Cloudy,170,2012-11-18 19:53:00
3:53 PM,54.0,27.0,35,30.44,10.0,SE,9.2,-,N/A,,Partly Cloudy,140,2012-11-18 20:53:00
4:53 PM,50.0,27.0,41,30.44,10.0,SE,5.8,-,N/A,,Partly Cloudy,140,2012-11-18 21:53:00
5:53 PM,46.0,27.0,47,30.45,10.0,SE,4.6,-,N/A,,Partly Cloudy,130,2012-11-18 22:53:00
6:53 PM,45.0,30.0,56,30.45,10.0,SE,6.9,-,N/A,,Partly Cloudy,130,2012-11-18 23:53:00
7:53 PM,43.0,30.9,62,30.45,10.0,SE,4.6,-,N/A,,Clear,130,2012-11-19 00:53:00
8:53 PM,42.8,30.2,61,30.43,10.0,ESE,5.8,-,N/A,,Clear,120,2012-11-19 01:53:00
9:53 PM,41.0,30.0,65,30.45,10.0,SE,9.2,-,N/A,,Clear,140,2012-11-19 02:53:00
10:53 PM,39.0,30.9,73,30.44,10.0,SE,6.9,-,N/A,,Partly Cloudy,140,2012-11-19 03:53:00
11:53 PM,37.4,32.0,81,30.40,10.0,SE,3.5,-,N/A,,Partly Cloudy,130,2012-11-19 04:53:00